Terminal Aerodrome Forecast
Issued by NWS

Home | Current Version | Previous Version | Text Only | Print | Product List | Glossary On
Versions: 1 2 3 4 5 6 7 8 9 10 11 12 13 14 15 16 17 18
216
FTUS41 KCAR 301721
TAFPQI
TAF
KPQI 301721Z 3018/3118 27007G13KT P6SM SCT060
     FM310000 30004KT P6SM FEW060
     FM310200 VRB02KT P6SM FEW250
     FM310730 VRB02KT 3SM BR FEW250
     FM311030 VRB02KT P6SM FEW250
     FM311400 32006KT P6SM BKN250=

USA.gov is the U.S. government's official web portal to all federal, state and local government web resources and services.